Overview Statistics Trail Chart Weather Telemetry Raw packets
 

This is the latest recevied weather packets stored in our database for station/object K6POO-1. If no packets are shown the sender has not sent any weather packets the latest 10 day(s).

<< 53 54 55 56 57 58 59 >>
Time Temp. Humidity Pressure Rain* Wind** Luminosity Snow
1788319664 17.22° C 82% 1016.6 hPa 0 mm - 0 W/m² -
1788319360 17.22° C 82% 1016.5 hPa 0 mm - 0 W/m² -
1788319059 17.22° C 82% 1016.7 hPa 0 mm - 0 W/m² -
1788318755 17.22° C 82% 1016.8 hPa 0 mm - 0 W/m² -
1788318451 17.22° C 82% 1016.6 hPa 0 mm - 0 W/m² -
1788318145 17.22° C 82% 1016.6 hPa 0 mm - 0 W/m² -
1788317844 17.22° C 82% 1016.5 hPa 0 mm - 0 W/m² -
1788317540 17.22° C 82% 1016.6 hPa 0 mm - 0 W/m² -
1788317235 17.22° C 82% 1016.4 hPa 0 mm - 1 W/m² -
1788316930 17.22° C 81% 1016.6 hPa 0 mm - 2 W/m² -
1788316626 17.22° C 81% 1016.4 hPa 0 mm - 4 W/m² -
1788316321 17.22° C 81% 1016.5 hPa 0 mm - 6 W/m² -
1788316020 17.78° C 80% 1016.5 hPa 0 mm - 9 W/m² -
1788315716 17.78° C 80% 1016.3 hPa 0 mm - 12 W/m² -
1788315411 17.78° C 79% 1016.5 hPa 0 mm - 16 W/m² -
1788315106 17.78° C 78% 1016.4 hPa 0 mm - 21 W/m² -
1788314803 17.78° C 77% 1016.5 hPa 0 mm - 27 W/m² -
1788314498 17.78° C 76% 1016.3 hPa 0 mm - 31 W/m² -
1788314193 17.78° C 75% 1016.4 hPa 0 mm - 36 W/m² -
1788313908 18.33° C 74% 1016.3 hPa 0 mm - 46 W/m² -
1788313585 18.33° C 72% 1016.5 hPa 0 mm - 44 W/m² -
1788313281 18.33° C 70% 1016.5 hPa 0 mm - 52 W/m² -
1788312980 18.33° C 68% 1016.3 hPa 0 mm - 52 W/m² -
1788312676 18.89° C 66% 1016.2 hPa 0 mm - 51 W/m² -
1788312371 19.44° C 66% 1016.3 hPa 0 mm - 57 W/m² -

* Rain latest hour (hover to see other rain measurements)
** Current wind speed in m/s (hover to see current wind gust speed)